Location: Schommer Observatory
(40.5200°N, 74.4500°W)
Time: 06:21:38
(UTC-05:00)

N. Korean satellite - Pass Details

Date: 19 November 2017
Orbit: 460 x 514 km, 97.2° (Epoch: 23 November)

Event Time Altitude Azimuth Distance (km) Brightness Sun altitude
Rises 06:12:38 0° 22° (NNE) 2,613 10.3 -7.2°
Reaches altitude 10° 06:14:53 10° 32° (NNE) 1,730 9.5 -6.8°
Maximum altitude 06:18:15 32° 97° (E) 898 8.8 -6.2°
Drops below altitude 10° 06:21:38 10° 162° (SSE) 1,731 10.0 -5.6°
Sets 06:23:53 0° 172° (S) 2,614 10.7 -5.2°
